User: anonymous   Login
Location: Unspecified
(0.0000°N, 0.0000°E)
Time: 07:26:18
(UTC+00:00)
Language:

GOES 4 - Orbit

View from above orbital plane
View from above orbital plane
View from above satellite
View from above satellite

Ground track
Ground track

The orbit data is extracted from the following two-line orbital elements,

1 11964U 80074A   19082.61463925 -.00000179 +00000-0 +00000-0 0  9994
2 11964 013.3170 327.7762 0036514 030.9653 148.9279 00.99228673101409
Epoch (UTC): 23 March 2019 14:45:04
Eccentricity: 0.0036514
inclination: 13.3170°
perigee height: 35926 km
apogee height: 36236 km
right ascension of ascending node: 327.7762°
argument of perigee: 30.9653°
revolutions per day: 0.99228673
mean anomaly at epoch: 148.9279°
orbit number at epoch: 10140

The dashed part of the orbit path shows where the satellite is in the earth's shadow,  

DLR